[[{"header":{"parameterUnit":"m.s-1","parameterCategory":1,"la1":30.2991,"la2":30.254,"lo1":-89.0895,"lo2":-89.0444,"dy":0.0017,"dx":0.0017,"nx":28,"ny":28,"refTime":"2024-12-10T09:00:00:Z","depth":0,"parameterNumber":2,"parameterNumberName":"U-component_of_WINDS"},"data":[0,0,0,0,0,0,0,0,0,0,0,0,0,0,0,0,0,0,0,0,0,0,0,0,0,0,0,0,0,0,0,0,0,0,0,0,0,0,0,0,0,0,0,0,0,0,0,0,0,0,0,0,0,0,0,0,0,0,4.0704,4.0705,0,4.0821,4.0823,4.0824,4.0732,4.0728,4.0724,4.072,4.0842,4.0849,4.0856,0,0,0,0,0,0,0,0,0,0,0,0,0,4.0402,4.0408,4.0704,4.0705,4.0707,4.0821,4.0823,4.0824,4.0732,4.0727,4.0723,4.0718,4.084,4.0848,4.0857,0,0,0,0,0,0,0,0,0,0,0,0,0,4.0528,4.041,4.0703,4.0674,4.0673,4.0821,4.0823,4.0825,4.0733,4.0727,4.0721,4.0716,4.0837,4.0847,4.0858,4.1041,0,0,4.089,4.0894,0,0,0,0,0,0,0,0,4.052,4.0539,4.0677,4.0677,4.0675,4.0756,4.0761,4.0897,4.0735,4.071,4.072,4.0713,4.0818,4.083,4.0865,4.1047,4.1052,4.0891,4.0897,4.0901,4.0904,0,0,0,0,0,0,0,4.0512,4.0533,4.075,4.0679,4.0678,4.0656,4.0668,4.0786,4.0796,4.0712,4.0706,4.0721,4.0817,4.0855,4.0867,4.1054,4.089,4.0899,4.0906,4.091,4.1392,4.1399,0,0,0,0,0,0,4.0506,4.0526,4.0746,4.0754,4.0582,4.0667,4.0679,4.0736,4.0795,4.0798,4.0726,4.0716,4.084,4.0855,4.0871,4.109,4.0901,4.0911,4.0917,4.1386,4.1394,4.1401,0,0,0,0,0,0,4.05,4.0526,4.0742,4.0638,4.0664,4.0678,4.0742,4.0741,4.078,4.0805,4.0807,4.0763,4.0836,4.0857,4.1,4.1093,4.0916,4.0925,4.1378,4.1388,4.1398,4.153,0,0,0,0,0,0,4.0491,4.0525,4.0594,4.0641,4.067,4.0868,4.0748,4.0748,4.0798,4.0786,4.0841,4.0844,4.0833,4.0985,4.101,4.1104,4.0933,4.137,4.1383,4.1394,4.1517,4.1543,4.1565,0,0,0,0,0,4.0481,4.0626,4.0598,4.0625,4.0757,4.0873,4.089,4.0874,4.0806,4.0876,4.0892,4.0842,4.1079,4.1,4.1028,4.1127,4.1364,4.1379,4.1393,4.1506,4.1538,4.1564,0,0,0,0,0,0,4.0591,4.0632,4.0601,4.0766,4.0817,4.0857,4.0945,4.0908,4.098,4.0966,4.0944,4.0957,4.1108,4.1131,4.1043,4.1308,4.121,4.1232,4.1287,4.1317,4.134,4.1332,4.0942,0,0,0,0,0,4.0634,4.0725,4.0756,4.0899,4.0926,4.0932,4.0982,4.0965,4.1017,4.1038,4.1065,4.1118,4.1204,4.1262,4.1343,4.152,4.1531,4.1602,4.1626,4.1645,4.1664,4.176,4.1792,4.145,4.1449,4.1449,0,0,4.0725,4.0758,4.0817,4.0922,4.0959,4.1054,4.095,4.1055,4.1125,4.1054,4.1191,4.1213,4.1271,4.1432,4.1504,4.1456,4.1761,4.1664,4.1679,4.1687,4.1779,4.1811,4.184,4.146,4.1458,4.1456,0,0,4.0938,4.0973,4.1096,4.1135,4.1193,4.1196,4.1226,4.1273,4.1285,4.1421,4.137,4.1454,4.1603,4.1647,4.1688,4.192,4.1877,4.1947,4.2072,4.2166,4.2193,4.2217,4.23,4.233,4.1965,4.1965,4.1966,0,4.1044,4.1184,4.1164,4.1273,4.1321,4.126,4.1385,4.1425,4.1507,4.1542,4.1487,4.1673,4.1708,4.1878,4.1935,4.1971,4.2004,4.194,4.2191,4.2214,4.2236,4.2315,4.2347,4.1974,4.1973,4.1972,4.1971,0,4.1312,4.141,4.1502,4.1583,4.1641,4.1757,4.1755,4.1817,4.1796,4.1805,4.1945,4.1985,4.2073,4.2112,4.2092,4.2281,4.2249,4.2193,4.2095,4.2278,4.2351,4.2382,4.1985,4.1982,4.198,4.1978,0,0,4.1598,4.1665,4.17,4.1736,4.1796,4.1872,4.1986,4.2071,4.2125,4.2184,4.228,4.2407,4.2356,4.2403,4.2388,4.2471,4.2653,4.2404,4.2405,4.245,4.2864,4.2906,4.2941,4.2624,4.263,4.2635,4.2859,0,4.1815,4.2013,4.1998,4.2185,4.2276,4.2221,4.232,4.2368,4.238,4.246,4.2473,4.2564,4.2489,4.2517,4.2596,4.2614,4.2735,4.2597,4.2714,4.2718,4.2701,4.298,4.3024,4.3234,4.2887,4.2892,4.2896,0,4.2094,4.2162,4.2359,4.2405,4.2443,4.2533,4.2611,4.2687,4.2741,4.2744,4.2797,4.2768,4.2884,4.2784,4.2944,4.285,4.2897,4.2913,4.2921,4.2931,4.2818,4.2998,4.33,4.3332,4.2941,4.2938,4.2934,0,4.2284,4.2425,4.2561,4.2593,4.2651,4.2716,4.2743,4.2791,4.2843,4.2912,4.2946,4.3027,4.3072,4.3135,4.313,4.3057,4.3293,4.3191,4.3299,4.3299,4.3351,4.3348,4.3666,4.3381,4.3381,4.338,4.338,0,4.2528,4.2651,4.2647,4.2731,4.2866,4.2849,4.2984,4.3004,4.3047,4.3134,4.3091,4.3174,4.3161,4.3245,4.3241,4.3374,4.3395,4.3401,4.3399,4.3405,4.3404,4.3436,4.3421,4.3389,4.3387,4.3385,4.3384,0,4.2764,4.2766,4.291,4.2953,4.2967,4.3065,4.3102,4.3182,4.319,4.3301,4.3326,4.3339,4.3435,4.3436,4.3545,4.3543,4.3707,4.3687,4.3688,4.3685,4.3793,4.3783,4.4142,4.4188,4.3873,4.3876,4.3879,0,4.2919,4.3012,4.3065,4.312,4.3151,4.3241,4.3294,4.3281,4.3338,4.3407,4.3479,4.357,4.3643,4.3799,4.3819,4.3903,4.3886,4.4006,4.3898,4.3902,4.3888,4.3883,4.3892,4.4027,4.4031,4.4033,4.4036,0,4.3196,4.3193,4.3271,4.3351,4.3416,4.3478,4.3535,4.3583,4.3575,4.3643,4.374,4.3796,4.3908,4.4,4.4082,4.411,4.4073,4.407,4.4099,4.4107,4.4104,4.4107,4.3746,4.4061,4.4059,4.4057,4.4056,4.4055,4.3397,4.3477,4.3527,4.3616,4.3657,4.3712,4.3789,4.3807,4.3887,4.3977,4.3964,4.4073,4.4125,4.423,4.4266,4.4352,4.431,4.4352,4.4363,4.4374,4.4386,4.409,4.4366,4.4366,4.4365,4.4364,4.4364,0,4.3671,4.3701,4.3783,4.3864,4.3935,4.3892,4.3954,4.4016,4.4112,4.4163,4.4236,4.4348,4.4437,4.4464,4.4551,4.4614,4.4599,4.4637,4.4632,4.464,4.4418,4.4384,4.4648,4.4648,4.4648,4.4648,4.4648,4.4647,4.3823,4.3956,4.3959,4.4113,4.4142,4.4247,4.4286,4.4337,4.4378,4.4505,4.4579,4.4595,4.4638,4.4727,4.4807,4.4813,4.4847,4.4892,4.4891,4.4684,4.4655,4.4628,4.4596,4.49,4.49,4.5105,4.5107,4.5109]},{"header":{"parameterUnit":"m.s-1","parameterCategory":1,"la1":30.2991,"la2":30.254,"lo1":-89.0895,"lo2":-89.0444,"dy":0.0017,"dx":0.0017,"nx":28,"ny":28,"refTime":"2024-12-10T09:00:00:Z","depth":0,"parameterNumber":3,"parameterNumberName":"V-component_of_WINDS"},"data":[0,0,0,0,0,0,0,0,0,0,0,0,0,0,0,0,0,0,0,0,0,0,0,0,0,0,0,0,0,0,0,0,0,0,0,0,0,0,0,0,0,0,0,0,0,0,0,0,0,0,0,0,0,0,0,0,0,0,-2.2436,-2.2437,0,-2.258,-2.2581,-2.2583,-2.2567,-2.2565,-2.2562,-2.256,-2.2711,-2.2717,-2.2723,0,0,0,0,0,0,0,0,0,0,0,0,0,-2.2152,-2.2157,-2.2436,-2.2438,-2.2439,-2.2579,-2.2581,-2.2583,-2.2567,-2.2564,-2.2562,-2.2559,-2.2709,-2.2716,-2.2723,0,0,0,0,0,0,0,0,0,0,0,0,0,-2.2283,-2.2159,-2.2436,-2.2448,-2.2451,-2.2579,-2.2581,-2.2584,-2.2568,-2.2564,-2.2561,-2.2558,-2.2706,-2.2715,-2.2724,-2.285,0,0,-2.2752,-2.2756,0,0,0,0,0,0,0,0,-2.2276,-2.2294,-2.2445,-2.2448,-2.2451,-2.2552,-2.2536,-2.2673,-2.2569,-2.2524,-2.256,-2.2556,-2.2661,-2.2674,-2.2708,-2.2857,-2.2864,-2.2753,-2.2759,-2.2763,-2.2765,0,0,0,0,0,0,0,-2.2267,-2.2288,-2.2493,-2.2447,-2.2451,-2.2448,-2.2463,-2.2562,-2.261,-2.2527,-2.2526,-2.2543,-2.2662,-2.2699,-2.2712,-2.2866,-2.2753,-2.2761,-2.2767,-2.277,-2.3127,-2.3131,0,0,0,0,0,0,-2.2254,-2.228,-2.2488,-2.2497,-2.2353,-2.2456,-2.2473,-2.2523,-2.2609,-2.2618,-2.2546,-2.2542,-2.2685,-2.2701,-2.2717,-2.2871,-2.2763,-2.2771,-2.2777,-2.3123,-2.3128,-2.3132,0,0,0,0,0,0,-2.2248,-2.2273,-2.2482,-2.2388,-2.2415,-2.2465,-2.2521,-2.2527,-2.2565,-2.2623,-2.2632,-2.2575,-2.2683,-2.2704,-2.2817,-2.2876,-2.2776,-2.2784,-2.3119,-2.3125,-2.313,-2.3179,0,0,0,0,0,0,-2.224,-2.2271,-2.2318,-2.239,-2.242,-2.2579,-2.2525,-2.2533,-2.258,-2.2576,-2.2653,-2.2662,-2.2682,-2.2804,-2.2826,-2.2887,-2.2791,-2.3114,-2.3121,-2.3128,-2.3173,-2.3186,-2.3198,0,0,0,0,0,-2.223,-2.2326,-2.232,-2.2346,-2.248,-2.2583,-2.26,-2.262,-2.2585,-2.2634,-2.2671,-2.266,-2.2866,-2.2815,-2.2841,-2.2905,-2.311,-2.3119,-2.3128,-2.3167,-2.3184,-2.3198,0,0,0,0,0,0,-2.2261,-2.2336,-2.233,-2.2453,-2.2511,-2.258,-2.2642,-2.2637,-2.2708,-2.2701,-2.2724,-2.2741,-2.2856,-2.2892,-2.2834,-2.3032,-2.2983,-2.2998,-2.3005,-2.3021,-2.3033,-2.3022,-2.2799,0,0,0,0,0,-2.2282,-2.2358,-2.242,-2.2522,-2.2552,-2.2592,-2.2637,-2.2648,-2.271,-2.2735,-2.2781,-2.2843,-2.2921,-2.2973,-2.3048,-2.3178,-2.3195,-2.3235,-2.3247,-2.3257,-2.327,-2.3342,-2.3361,-2.3161,-2.3161,-2.3161,0,0,-2.2327,-2.2377,-2.2424,-2.253,-2.2577,-2.2656,-2.2613,-2.2699,-2.2759,-2.2748,-2.2858,-2.2894,-2.2965,-2.3087,-2.3143,-2.3121,-2.3329,-2.3268,-2.3276,-2.3283,-2.3353,-2.3372,-2.3389,-2.3167,-2.3166,-2.3165,0,0,-2.2449,-2.2494,-2.2585,-2.2633,-2.2704,-2.273,-2.2751,-2.2821,-2.2844,-2.2955,-2.2949,-2.3021,-2.3156,-2.3207,-2.3251,-2.3393,-2.3386,-2.3417,-2.3483,-2.3554,-2.357,-2.3584,-2.3636,-2.3655,-2.343,-2.343,-2.343,0,-2.2496,-2.2615,-2.2633,-2.272,-2.2767,-2.276,-2.2854,-2.2899,-2.2992,-2.3026,-2.2998,-2.3168,-2.3215,-2.335,-2.3385,-2.342,-2.3447,-2.3409,-2.3566,-2.358,-2.3594,-2.3644,-2.3663,-2.3433,-2.3433,-2.3432,-2.3432,0,-2.267,-2.2752,-2.2817,-2.2906,-2.2961,-2.305,-2.3083,-2.3137,-2.3142,-2.3172,-2.3285,-2.3342,-2.3429,-2.3462,-2.3468,-2.3599,-2.3582,-2.356,-2.3512,-2.3616,-2.3664,-2.3683,-2.3438,-2.3437,-2.3436,-2.3435,0,0,-2.2816,-2.2914,-2.2937,-2.2978,-2.3056,-2.3121,-2.3211,-2.3296,-2.3342,-2.3406,-2.3484,-2.3598,-2.3579,-2.3628,-2.3641,-2.3703,-2.3814,-2.3673,-2.3675,-2.3699,-2.3963,-2.398,-2.4002,-2.3809,-2.3813,-2.3816,-2.3958,0,-2.2947,-2.3105,-2.3124,-2.3265,-2.3343,-2.3338,-2.3417,-2.3474,-2.3504,-2.3576,-2.3609,-2.3691,-2.3658,-2.3688,-2.3749,-2.3788,-2.3868,-2.3777,-2.3883,-2.3887,-2.3867,-2.4027,-2.4045,-2.4175,-2.3976,-2.3979,-2.3982,0,-2.3121,-2.319,-2.3338,-2.3407,-2.344,-2.351,-2.359,-2.3657,-2.3723,-2.3741,-2.3797,-2.3801,-2.3896,-2.3843,-2.3976,-2.3914,-2.3958,-2.3984,-2.399,-2.4001,-2.3941,-2.4044,-2.4218,-2.4238,-2.4011,-2.4009,-2.4006,0,-2.3215,-2.3344,-2.345,-2.3485,-2.3567,-2.3617,-2.3654,-2.3716,-2.3766,-2.3836,-2.3869,-2.395,-2.3995,-2.4058,-2.4085,-2.4044,-2.4217,-2.4165,-2.4236,-2.4235,-2.4273,-2.4271,-2.4458,-2.4299,-2.4299,-2.4299,-2.4298,0,-2.336,-2.3452,-2.3493,-2.3559,-2.3662,-2.3683,-2.3785,-2.382,-2.3876,-2.3949,-2.395,-2.4019,-2.405,-2.4125,-2.4147,-2.4254,-2.4274,-2.4292,-2.4297,-2.4293,-2.4291,-2.4324,-2.4316,-2.4304,-2.4303,-2.4302,-2.4301,0,-2.3482,-2.3514,-2.3629,-2.3698,-2.3717,-2.379,-2.3849,-2.3914,-2.3943,-2.4036,-2.4059,-2.4106,-2.4194,-2.4227,-2.4334,-2.4349,-2.4474,-2.447,-2.4451,-2.4453,-2.4522,-2.4516,-2.4738,-2.4769,-2.4588,-2.459,-2.4591,0,-2.3574,-2.3644,-2.3719,-2.3768,-2.3806,-2.3885,-2.3936,-2.396,-2.4013,-2.4094,-2.4149,-2.4236,-2.4308,-2.4449,-2.4493,-2.4576,-2.4576,-2.4648,-2.4588,-2.4583,-2.4579,-2.4575,-2.4583,-2.4659,-2.4661,-2.4663,-2.4664,0,-2.3732,-2.3745,-2.3817,-2.3896,-2.3957,-2.402,-2.4082,-2.4122,-2.4156,-2.4217,-2.4306,-2.4361,-2.4471,-2.4558,-2.4643,-2.4683,-2.4681,-2.4682,-2.4703,-2.47,-2.4687,-2.4697,-2.4483,-2.4677,-2.4676,-2.4675,-2.4674,-2.4674,-2.3843,-2.3906,-2.3969,-2.4051,-2.4099,-2.4157,-2.4221,-2.4258,-2.4333,-2.4423,-2.4433,-2.453,-2.4596,-2.4709,-2.4753,-2.483,-2.4811,-2.4841,-2.4849,-2.4856,-2.4862,-2.4673,-2.4845,-2.4845,-2.4845,-2.4845,-2.4844,0,-2.4004,-2.4044,-2.4119,-2.4205,-2.4269,-2.4259,-2.4327,-2.4383,-2.4467,-2.4528,-2.4598,-2.4701,-2.4787,-2.4838,-2.4924,-2.4976,-2.4977,-2.4998,-2.4995,-2.5005,-2.4873,-2.4847,-2.4996,-2.4995,-2.4995,-2.4995,-2.4995,-2.4995,-2.4095,-2.4201,-2.4221,-2.4352,-2.4392,-2.4485,-2.4525,-2.458,-2.4628,-2.4744,-2.4814,-2.4846,-2.4904,-2.4994,-2.5072,-2.5085,-2.5118,-2.5141,-2.5153,-2.5029,-2.5014,-2.4999,-2.4975,-2.5147,-2.5147,-2.5278,-2.5279,-2.528]}]]